Dades meteomassalio
Diari Summary for Agost 16, 2017 Units:  Metric    English   Both
« Previous Day
Next Day »
Diari Semanal Mensual Anual Personalitzat
  Maxima: Minima: Mijana:
Temperatura: -17.8 °C -7.3 °C -3.4 °C
Rosada: -17.8 °C -10.4 °C -8.4 °C
Humitat: Humidity % 30 % 61 %
Velocitat del vent: 0 km/h 0 km/h 3.7 km/h
Racha vent: 0 km/h - -
Vent:- - SE
Pressio: 0 hPa 34384.8 hPa -
Pluja: 0 mm    
Historical Graphs
 
 
Tabular Data for Agost 16, 2017
Time Temperature Dew Point Pressure Wind Wind Speed Wind Gust Humidity Rainfall Rate (Hourly) solar Conditions
-17.8 °C -17.8 °C 0 hPa Calm     Humidity % 0 mm SolarRadiationWatts/m^2 W/m2 Conditions
00:03 -5.4 °C -7.2 °C 34442.4 hPa Calm     82 % 0 mm 0.0 W/m2 RA
00:08 -5.4 °C -7.1 °C 34442.4 hPa Calm     83 % 0 mm 0.0 W/m2 CLR
00:13 -5.5 °C -7.2 °C 34442.4 hPa Calm     83 % 0 mm 0.0 W/m2 CLR
00:18 -5.6 °C -7.2 °C 34442.4 hPa Calm     83 % 0 mm 0.0 W/m2 CLR
00:23 -5.7 °C -7.4 °C 34442.4 hPa Calm     82 % 0 mm 0.0 W/m2 CLR
00:28 -5.8 °C -7.4 °C 34442.4 hPa Calm     83 % 0 mm 0.0 W/m2 CLR
00:33 -5.8 °C -7.5 °C 34428.8 hPa Calm     83 % 0 mm 0.0 W/m2 CLR
00:38 -5.9 °C -7.4 °C 34428.8 hPa Calm     84 % 0 mm 0.0 W/m2 CLR
00:43 -5.9 °C -7.6 °C 34442.4 hPa Calm     84 % 0 mm 0.0 W/m2 CLR
00:48 -6 °C -7.4 °C 34442.4 hPa Calm     85 % 0 mm 0.0 W/m2 CLR
00:53 -6.1 °C -7.7 °C 34442.4 hPa Calm     84 % 0 mm 0.0 W/m2 CLR
00:58 -6.1 °C -7.6 °C 34442.4 hPa Calm     85 % 0 mm 0.0 W/m2 CLR
01:03 -6.2 °C -7.7 °C 34442.4 hPa Calm     85 % 0 mm 0.0 W/m2 CLR
01:08 -6.3 °C -7.7 °C 34452.6 hPa Calm     85 % 0 mm 0.0 W/m2 CLR
01:13 -6.3 °C -7.8 °C 34442.4 hPa Calm     85 % 0 mm 0.0 W/m2 CLR
01:18 -6.3 °C -7.8 °C 34442.4 hPa Calm     85 % 0 mm 0.0 W/m2 CLR
01:23 -6.4 °C -7.8 °C 34442.4 hPa Calm     86 % 0 mm 0.0 W/m2 CLR
01:28 -6.4 °C -7.8 °C 34452.6 hPa Calm     86 % 0 mm 0.0 W/m2 CLR
01:33 -6.5 °C -7.8 °C 34442.4 hPa Calm     86 % 0 mm 0.0 W/m2 CLR
01:38 -6.5 °C -7.8 °C 34442.4 hPa Calm     86 % 0 mm 0.0 W/m2 CLR
01:43 -6.5 °C -7.9 °C 34442.4 hPa Calm     86 % 0 mm 0.0 W/m2 CLR
01:48 -6.6 °C -7.9 °C 34442.4 hPa Calm     86 % 0 mm 0.0 W/m2 CLR
01:53 -6.6 °C -7.9 °C 34442.4 hPa Calm     86 % 0 mm 0.0 W/m2 CLR
01:58 -6.6 °C -7.8 °C 34442.4 hPa Calm     87 % 0 mm 0.0 W/m2 CLR
02:03 -6.7 °C -8 °C 34442.4 hPa Calm     86 % 0 mm 0.0 W/m2 CLR
02:08 -6.7 °C -7.9 °C 34442.4 hPa Calm     87 % 0 mm 0.0 W/m2 CLR
02:13 -6.7 °C -7.9 °C 34442.4 hPa Calm     87 % 0 mm 0.0 W/m2 CLR
02:18 -6.8 °C -8 °C 34442.4 hPa Calm     87 % 0 mm 0.0 W/m2 CLR
02:19 -6.8 °C -8 °C 34442.4 hPa Calm     87 % 0 mm 0.0 W/m2 CLR
02:24 -6.8 °C -8 °C 34442.4 hPa Calm     87 % 0 mm 0.0 W/m2 CLR
02:29 -6.8 °C -8 °C 34442.4 hPa Calm     87 % 0 mm 0.0 W/m2 CLR
02:34 -6.8 °C -8.1 °C 34442.4 hPa Calm     87 % 0 mm 0.0 W/m2 CLR
02:39 -6.9 °C -8.1 °C 34442.4 hPa Calm     87 % 0 mm 0.0 W/m2 CLR
02:44 -6.9 °C -8.2 °C 34442.4 hPa Calm     87 % 0 mm 0.0 W/m2 CLR
02:49 -7 °C -8.2 °C 34442.4 hPa Calm     87 % 0 mm 0.0 W/m2 CLR
02:54 -7.1 °C -8.3 °C 34442.4 hPa Calm     87 % 0 mm 0.0 W/m2 CLR
02:59 -7.1 °C -8.3 °C 34442.4 hPa Calm     87 % 0 mm 0.0 W/m2 CLR
03:04 -7.1 °C -8.2 °C 34442.4 hPa Calm     88 % 0 mm 0.0 W/m2 CLR
03:09 -7.1 °C -8.3 °C 34442.4 hPa Calm     88 % 0 mm 0.0 W/m2 CLR
03:14 -7.1 °C -8.3 °C 34442.4 hPa Calm     88 % 0 mm 0.0 W/m2 CLR
03:19 -7.1 °C -8.3 °C 34442.4 hPa Calm     88 % 0 mm 0.0 W/m2 CLR
03:24 -7.2 °C -8.3 °C 34442.4 hPa Calm     88 % 0 mm 0.0 W/m2 CLR
03:29 -7.2 °C -8.3 °C 34442.4 hPa Calm     88 % 0 mm 0.0 W/m2 CLR
03:34 -7.2 °C -8.3 °C 34442.4 hPa Calm     88 % 0 mm 0.0 W/m2 CLR
03:39 -7.2 °C -8.3 °C 34442.4 hPa Calm     88 % 0 mm 0.0 W/m2 CLR
03:44 -7.2 °C -8.4 °C 34452.6 hPa Calm     88 % 0 mm 0.0 W/m2 CLR
03:49 -7.3 °C -8.4 °C 34452.6 hPa Calm     88 % 0 mm 0.0 W/m2 CLR
03:54 -7.3 °C -8.3 °C 34452.6 hPa Calm     89 % 0 mm 0.0 W/m2 CLR
03:59 -7.3 °C -8.4 °C 34452.6 hPa Calm     88 % 0 mm 0.0 W/m2 CLR
04:04 -7.3 °C -8.4 °C 34452.6 hPa Calm     88 % 0 mm 0.0 W/m2 CLR
04:09 -7.3 °C -8.4 °C 34452.6 hPa Calm     88 % 0 mm 0.0 W/m2 CLR
04:14 -7.3 °C -8.3 °C 34452.6 hPa Calm     89 % 0 mm 0.0 W/m2 CLR
04:19 -7.3 °C -8.3 °C 34452.6 hPa Calm     89 % 0 mm 0.0 W/m2 CLR
04:24 -7.2 °C -8.2 °C 34452.6 hPa Calm     89 % 0 mm 0.0 W/m2 CLR
04:29 -7.2 °C -8.2 °C 34452.6 hPa Calm     89 % 0 mm 0.0 W/m2 CLR
04:34 -7.2 °C -8.2 °C 34452.6 hPa Calm     89 % 0 mm 0.0 W/m2 CLR
04:39 -7.2 °C -8.2 °C 34452.6 hPa Calm     89 % 0 mm 0.0 W/m2 CLR
04:44 -7.2 °C -8.2 °C 34452.6 hPa Calm     89 % 0 mm 0.0 W/m2 CLR
04:49 -7.2 °C -8.2 °C 34452.6 hPa Calm     89 % 0 mm 0.0 W/m2 CLR
04:54 -7.1 °C -8.2 °C 34452.6 hPa Calm     89 % 0 mm 0.0 W/m2 CLR
04:59 -7.1 °C -8.2 °C 34462.7 hPa Calm     89 % 0 mm 0.0 W/m2 CLR
05:04 -7.1 °C -8.2 °C 34462.7 hPa Calm     89 % 0 mm 0.0 W/m2 CLR
05:09 -7.1 °C -8.1 °C 34462.7 hPa Calm     89 % 0 mm 0.0 W/m2 CLR
05:14 -7 °C -8 °C 34462.7 hPa Calm     89 % 0 mm 0.0 W/m2 CLR
05:19 -6.9 °C -8 °C 34462.7 hPa Calm     89 % 0 mm 0.0 W/m2 CLR
05:21 -6.9 °C -8 °C 34462.7 hPa Calm     89 % 0 mm 0.0 W/m2 CLR
05:22 -6.9 °C -8 °C 34462.7 hPa Calm     89 % 0 mm 0.0 W/m2 CLR
05:26 -6.9 °C -8 °C 34462.7 hPa Calm     88 % 0 mm 0.0 W/m2 CLR
05:31 -6.8 °C -8 °C 34462.7 hPa Calm     88 % 0 mm 0.0 W/m2 CLR
05:36 -6.8 °C -7.9 °C 34462.7 hPa West 5.1 km/h 5.1 km/h 88 % 0 mm 0.0 W/m2 CLR
05:41 -6.8 °C -7.9 °C 34462.7 hPa Calm     88 % 0 mm 0.0 W/m2 CLR
05:46 -6.7 °C -7.9 °C 34462.7 hPa Calm     88 % 0 mm 0.0 W/m2 CLR
05:51 -6.8 °C -7.9 °C 34462.7 hPa Calm     88 % 0 mm 0.0 W/m2 CLR
05:56 -6.8 °C -7.9 °C 34462.7 hPa Calm     88 % 0 mm 0.0 W/m2 CLR
06:01 -6.8 °C -7.9 °C 34462.7 hPa Calm     88 % 0 mm 0.0 W/m2 CLR
06:06 -6.8 °C -7.9 °C 34462.7 hPa Calm     88 % 0 mm 0.0 W/m2 CLR
06:11 -6.7 °C -7.7 °C 34462.7 hPa Calm     89 % 0 mm 0.0 W/m2 CLR
06:16 -6.6 °C -7.6 °C 34476.3 hPa Calm     89 % 0 mm 0.0 W/m2 CLR
06:21 -6.4 °C -7.5 °C 34476.3 hPa SW 6 km/h   89 % 0 mm 0.0 W/m2 CLR
06:27 -6.3 °C -7.4 °C 34476.3 hPa Calm     89 % 0 mm 0.0 W/m2 CLR
06:32 -6.2 °C -7.4 °C 34476.3 hPa WSW 10.3 km/h 10.3 km/h 88 % 0 mm 0.0 W/m2 CLR
06:37 -6.2 °C -7.3 °C 34476.3 hPa Calm     88 % 0 mm 0.0 W/m2 CLR
06:42 -6.2 °C -7.3 °C 34476.3 hPa SW 3.1 km/h 3.1 km/h 88 % 0 mm 0.0 W/m2 CLR
06:47 -6.2 °C -7.4 °C 34476.3 hPa WSW 5.1 km/h 5.1 km/h 87 % 0 mm 0.0 W/m2 CLR
06:52 -6.2 °C -7.4 °C 34476.3 hPa Calm     87 % 0 mm 0.0 W/m2 CLR
06:57 -6.2 °C -7.4 °C 34476.3 hPa Calm     87 % 0 mm 0.0 W/m2 CLR
07:02 -6.2 °C -7.5 °C 34476.3 hPa Calm     86 % 0 mm 0.0 W/m2 OVC
07:07 -6.2 °C -7.5 °C 34476.3 hPa Calm     86 % 0 mm 0.0 W/m2 OVC
07:12 -6.2 °C -7.6 °C 34476.3 hPa Calm     85 % 0 mm 0.0 W/m2 OVC
07:17 -6.2 °C -7.7 °C 34486.4 hPa Calm     84 % 0 mm 5.0 W/m2 OVC
07:22 -6.1 °C -7.8 °C 34486.4 hPa Calm     83 % 0 mm 11.0 W/m2 BKN
07:27 -6.1 °C -7.8 °C 34486.4 hPa Calm     83 % 0 mm 19.0 W/m2 BKN
07:32 -6.1 °C -7.9 °C 34486.4 hPa Calm     82 % 0 mm 23.0 W/m2 BKN
07:37 -6.1 °C -7.9 °C 34486.4 hPa Calm     81 % 0 mm 26.0 W/m2 BKN
07:42 -6.1 °C -8.1 °C 34486.4 hPa Calm     80 % 0 mm 32.0 W/m2 BKN
07:47 -6.1 °C -8.1 °C 34486.4 hPa Calm     80 % 0 mm 35.0 W/m2 BKN
07:52 -6.1 °C -8.2 °C 34486.4 hPa Calm     79 % 0 mm 37.0 W/m2 BKN
07:57 -6.1 °C -8.2 °C 34486.4 hPa Calm     79 % 0 mm 46.0 W/m2 SCT
08:02 -6.1 °C -8.2 °C 34496.6 hPa Calm     79 % 0 mm 54.0 W/m2 SCT
08:07 -6.1 °C -8.2 °C 34496.6 hPa Calm     79 % 0 mm 54.0 W/m2 SCT
08:12 -6 °C -8.1 °C 34496.6 hPa Calm     79 % 0 mm 56.0 W/m2 SCT
08:17 -6.1 °C -8.2 °C 34496.6 hPa Calm     79 % 0 mm 67.0 W/m2 SCT
08:22 -6 °C -8.2 °C 34496.6 hPa Calm     78 % 0 mm 76.0 W/m2 SCT
08:27 -6 °C -8.3 °C 34496.6 hPa Calm     77 % 0 mm 86.0 W/m2 FEW
08:32 -6 °C -8.3 °C 34496.6 hPa Calm     77 % 0 mm 120.0 W/m2 CLR
08:37 -5.9 °C -8.4 °C 34496.6 hPa Calm     76 % 0 mm 204.0 W/m2 CLR
08:42 -5.9 °C -8.3 °C 34510.1 hPa WNW 2.6 km/h 2.6 km/h 76 % 0 mm 181.0 W/m2 CLR
08:47 -5.8 °C -8.4 °C 34510.1 hPa NW 10.3 km/h 10.3 km/h 75 % 0 mm 174.0 W/m2 CLR
08:52 -5.7 °C -8.3 °C 34510.1 hPa NW 9 km/h 9 km/h 75 % 0 mm 260.0 W/m2 CLR
08:57 -5.7 °C -8.3 °C 34510.1 hPa WNW 9 km/h 9 km/h 74 % 0 mm 174.0 W/m2 CLR
09:02 -5.6 °C -8.3 °C 34510.1 hPa Calm     74 % 0 mm 123.0 W/m2 CLR
09:07 -5.6 °C -8.4 °C 34510.1 hPa Calm     73 % 0 mm 111.0 W/m2 CLR
09:12 -5.6 °C -8.4 °C 34510.1 hPa Calm     73 % 0 mm 114.0 W/m2 CLR
09:17 -5.6 °C -8.4 °C 34510.1 hPa Calm     73 % 0 mm 141.0 W/m2 CLR
09:22 -5.6 °C -8.4 °C 34510.1 hPa Calm     73 % 0 mm 160.0 W/m2 CLR
09:27 -5.5 °C -8.3 °C 34510.1 hPa Calm     73 % 0 mm 197.0 W/m2 CLR
09:28 -5.5 °C -8.3 °C 34510.1 hPa Calm     73 % 0 mm 244.0 W/m2 CLR
09:33 -5.4 °C -8.3 °C 34510.1 hPa Calm     72 % 0 mm 315.0 W/m2 CLR
09:38 -5.2 °C -8.2 °C 34496.6 hPa Calm     72 % 0 mm 367.0 W/m2 CLR
09:43 -5.1 °C -8.3 °C 34496.6 hPa Calm     70 % 0 mm 229.0 W/m2 CLR
09:48 -4.9 °C -8.3 °C 34510.1 hPa Calm     69 % 0 mm 290.0 W/m2 CLR
09:53 -4.9 °C -8.2 °C 34510.1 hPa Calm     69 % 0 mm 348.0 W/m2 CLR
09:58 -4.8 °C -8.1 °C 34510.1 hPa Calm     69 % 0 mm 397.0 W/m2 CLR
10:03 -4.6 °C -8.2 °C 34510.1 hPa Calm     67 % 0 mm 448.0 W/m2 CLR
10:08 -4.4 °C -8.1 °C 34496.6 hPa Calm     67 % 0 mm 381.0 W/m2 CLR
10:13 -4.4 °C -8 °C 34496.6 hPa Calm     67 % 0 mm 315.0 W/m2 CLR
10:18 -4.3 °C -8.1 °C 34496.6 hPa Calm     66 % 0 mm 436.0 W/m2 CLR
10:23 -4.3 °C -8 °C 34496.6 hPa Calm     66 % 0 mm 476.0 W/m2 CLR
10:28 -4.2 °C -8.1 °C 34496.6 hPa North 9 km/h 9 km/h 65 % 0 mm 408.0 W/m2 CLR
10:33 -4.1 °C -8.2 °C 34496.6 hPa Calm     64 % 0 mm 487.0 W/m2 CLR
10:38 -4.1 °C -8.1 °C 34496.6 hPa Calm     64 % 0 mm 459.0 W/m2 CLR
10:43 -3.9 °C -7.9 °C 34496.6 hPa WSW 23.8 km/h 23.8 km/h 64 % 0 mm 571.0 W/m2 CLR
10:48 -3.8 °C -7.8 °C 34496.6 hPa Calm     64 % 0 mm 559.0 W/m2 CLR
10:53 -3.7 °C -7.9 °C 34496.6 hPa Calm     63 % 0 mm 457.0 W/m2 CLR
10:58 -3.7 °C -8 °C 34496.6 hPa Calm     62 % 0 mm 480.0 W/m2 CLR
11:03 -3.5 °C -7.8 °C 34496.6 hPa NW 15 km/h 15 km/h 62 % 0 mm 598.0 W/m2 CLR
11:08 -3.5 °C -7.8 °C 34496.6 hPa NNW 9 km/h 9 km/h 62 % 0 mm 531.0 W/m2 CLR
11:13 -3.5 °C -7.8 °C 34496.6 hPa Calm     62 % 0 mm 496.0 W/m2 CLR
11:18 -3.3 °C -7.6 °C 34496.6 hPa Calm   1.3 km/h 63 % 0 mm 642.0 W/m2 CLR
11:23 -3.2 °C -7.7 °C 34496.6 hPa North 9 km/h 9 km/h 61 % 0 mm 624.0 W/m2 CLR
11:28 -3.1 °C -7.7 °C 34496.6 hPa ENE 9 km/h 9 km/h 60 % 0 mm 675.0 W/m2 CLR
11:33 -3 °C -7.8 °C 34496.6 hPa East 11.9 km/h 11.9 km/h 59 % 0 mm 527.0 W/m2 CLR
11:38 -3.1 °C -7.8 °C 34496.6 hPa ENE 9 km/h   60 % 0 mm 475.0 W/m2 CLR
11:43 -3.1 °C -7.7 °C 34496.6 hPa NE 9 km/h 9 km/h 60 % 0 mm 415.0 W/m2 CLR
11:48 -2.9 °C -7.6 °C 34496.6 hPa Calm     60 % 0 mm 707.0 W/m2 CLR
11:53 -2.8 °C -7.6 °C 34496.6 hPa NE 10.3 km/h 10.3 km/h 59 % 0 mm 726.0 W/m2 CLR
11:58 -2.7 °C -7.7 °C 34496.6 hPa ENE 3.1 km/h 3.1 km/h 58 % 0 mm 661.0 W/m2 CLR
12:03 -2.7 °C -7.7 °C 34496.6 hPa ENE 6 km/h   58 % 0 mm 557.0 W/m2 CLR
12:08 -2.6 °C -7.7 °C 34486.4 hPa North 9 km/h 9 km/h 57 % 0 mm 645.0 W/m2 CLR
12:13 -2.6 °C -7.7 °C 34486.4 hPa East 9 km/h 9 km/h 57 % 0 mm 726.0 W/m2 CLR
12:18 -2.6 °C -7.7 °C 34486.4 hPa Calm     57 % 0 mm 807.0 W/m2 CLR
12:23 -2.4 °C -7.6 °C 34486.4 hPa ENE 11.9 km/h 11.9 km/h 57 % 0 mm 652.0 W/m2 CLR
12:28 -2.2 °C -7.6 °C 34486.4 hPa Calm     56 % 0 mm 722.0 W/m2 CLR
12:33 -2.1 °C -7.7 °C 34486.4 hPa ENE 9 km/h   54 % 0 mm 742.0 W/m2 CLR
12:38 -2.2 °C -7.7 °C 34486.4 hPa Calm     55 % 0 mm 809.0 W/m2 CLR
12:43 -2.1 °C -7.7 °C 34486.4 hPa Calm     54 % 0 mm 752.0 W/m2 CLR
12:48 -2.1 °C -7.7 °C 34486.4 hPa Calm     54 % 0 mm 700.0 W/m2 CLR
12:53 -2.1 °C -7.7 °C 34486.4 hPa Calm     54 % 0 mm 786.0 W/m2 CLR
12:58 -2 °C -7.7 °C 34486.4 hPa Calm     54 % 0 mm 807.0 W/m2 CLR
13:03 -1.9 °C -7.6 °C 34486.4 hPa Calm   0.3 km/h 54 % 0 mm 796.0 W/m2 CLR
13:09 -1.9 °C -7.7 °C 34476.3 hPa ENE 15 km/h 15 km/h 53 % 0 mm 819.0 W/m2 CLR
13:14 -2 °C -7.7 °C 34476.3 hPa East 5.1 km/h 5.1 km/h 54 % 0 mm 788.0 W/m2 CLR
13:19 -1.9 °C -7.6 °C 34476.3 hPa North 9 km/h 9 km/h 54 % 0 mm 865.0 W/m2 CLR
13:24 -1.7 °C -7.7 °C 34476.3 hPa NNE 29.8 km/h 29.8 km/h 52 % 0 mm 795.0 W/m2 CLR
13:29 -1.7 °C -7.7 °C 34476.3 hPa NNW 3.1 km/h   52 % 0 mm 861.0 W/m2 CLR
13:34 -1.4 °C -7.7 °C 34476.3 hPa NNW 6 km/h   51 % 0 mm 842.0 W/m2 CLR
13:39 -1.3 °C -7.6 °C 34476.3 hPa East 7.7 km/h 7.7 km/h 51 % 0 mm 689.0 W/m2 CLR
13:44 -1.5 °C -7.7 °C 34476.3 hPa ESE 17.9 km/h 17.9 km/h 51 % 0 mm 742.0 W/m2 CLR
13:49 -1.6 °C -7.8 °C 34462.7 hPa ENE 10.3 km/h 10.3 km/h 51 % 0 mm 752.0 W/m2 CLR
13:54 -1.6 °C -7.7 °C 34462.7 hPa East 17.9 km/h 17.9 km/h 52 % 0 mm 770.0 W/m2 CLR
13:59 -1.6 °C -7.7 °C 34462.7 hPa East 9 km/h 9 km/h 52 % 0 mm 791.0 W/m2 CLR
14:04 -1.6 °C -7.6 °C 34462.7 hPa ENE 15 km/h 15 km/h 52 % 0 mm 881.0 W/m2 CLR
14:14 -1.3 °C -7.6 °C 34452.6 hPa SE 6 km/h 6 km/h 51 % 0 mm 868.0 W/m2 CLR
14:19 -1.1 °C -7.6 °C 34452.6 hPa ENE 17.9 km/h 17.9 km/h 50 % 0 mm 863.0 W/m2 CLR
14:24 -1 °C -7.6 °C 34452.6 hPa Calm     49 % 0 mm 858.0 W/m2 CLR
14:29 -0.9 °C -7.5 °C 34452.6 hPa NE 15 km/h 15 km/h 49 % 0 mm 856.0 W/m2 CLR
14:34 -0.8 °C -7.6 °C 34452.6 hPa Calm     48 % 0 mm 860.0 W/m2 CLR
14:39 -0.7 °C -7.7 °C 34442.4 hPa ENE 6 km/h 6 km/h 47 % 0 mm 851.0 W/m2 CLR
14:44 -0.7 °C -7.7 °C 34442.4 hPa Calm     47 % 0 mm 846.0 W/m2 CLR
14:49 -0.7 °C -7.7 °C 34442.4 hPa SE 6 km/h 6 km/h 47 % 0 mm 840.0 W/m2 CLR
14:54 -0.7 °C -7.5 °C 34442.4 hPa Calm     48 % 0 mm 831.0 W/m2 CLR
14:59 -0.4 °C -7.6 °C 34442.4 hPa ENE 3.1 km/h 3.1 km/h 46 % 0 mm 828.0 W/m2 CLR
15:04 -0.2 °C -7.6 °C 34428.8 hPa NE 9 km/h 9 km/h 45 % 0 mm 826.0 W/m2 CLR
15:09 -0.2 °C -7.6 °C 34428.8 hPa ENE 9 km/h 9 km/h 45 % 0 mm 819.0 W/m2 CLR
15:14 -0.1 °C -7.7 °C 34428.8 hPa NE 20.8 km/h 20.8 km/h 44 % 0 mm 816.0 W/m2 CLR
15:19 -0.1 °C -7.7 °C 34428.8 hPa NE 9 km/h 9 km/h 44 % 0 mm 809.0 W/m2 CLR
15:24 -0.1 °C -7.9 °C 34428.8 hPa East 17.9 km/h 17.9 km/h 43 % 0 mm 802.0 W/m2 CLR
15:29 -0.1 °C -7.8 °C 34428.8 hPa SE 18.2 km/h 18.2 km/h 44 % 0 mm 795.0 W/m2 CLR
15:34 -0.2 °C -7.8 °C 34428.8 hPa ENE 11.9 km/h 11.9 km/h 44 % 0 mm 789.0 W/m2 CLR
15:39 0 °C -7.9 °C 34428.8 hPa ENE 5.1 km/h 5.1 km/h 43 % 0 mm 780.0 W/m2 CLR
15:44 0.2 °C -7.9 °C 34418.7 hPa NNE 17.9 km/h 17.9 km/h 42 % 0 mm 775.0 W/m2 CLR
15:49 0.2 °C -8.1 °C 34418.7 hPa ENE 12.9 km/h 12.9 km/h 41 % 0 mm 766.0 W/m2 CLR
15:54 0.2 °C -8.1 °C 34418.7 hPa ESE 3.1 km/h 3.1 km/h 41 % 0 mm 751.0 W/m2 CLR
15:59 0.3 °C -8 °C 34418.7 hPa ENE 10.3 km/h 10.3 km/h 41 % 0 mm 754.0 W/m2 CLR
16:04 0.4 °C -7.9 °C 34418.7 hPa NE 15 km/h 15 km/h 41 % 0 mm 745.0 W/m2 CLR
16:09 0.6 °C -7.7 °C 34418.7 hPa ENE 9 km/h 9 km/h 41 % 0 mm 738.0 W/m2 CLR
16:14 0.6 °C -7.9 °C 34418.7 hPa NE 6 km/h 6 km/h 40 % 0 mm 733.0 W/m2 CLR
16:19 0.6 °C -7.9 °C 34418.7 hPa Calm     40 % 0 mm 700.0 W/m2 CLR
16:24 0.5 °C -8 °C 34405.1 hPa ENE 9 km/h   40 % 0 mm 598.0 W/m2 CLR
16:29 0.5 °C -8.1 °C 34405.1 hPa ENE 15 km/h 15 km/h 40 % 0 mm 696.0 W/m2 CLR
16:34 0.6 °C -7.9 °C 34405.1 hPa ENE 20.9 km/h 20.9 km/h 40 % 0 mm 631.0 W/m2 CLR
16:39 0.5 °C -8 °C 34405.1 hPa Calm     40 % 0 mm 656.0 W/m2 CLR
16:44 0.6 °C -7.9 °C 34405.1 hPa East 15 km/h 15 km/h 40 % 0 mm 696.0 W/m2 CLR
16:49 0.5 °C -8 °C 34405.1 hPa ENE 20.9 km/h 20.9 km/h 40 % 0 mm 628.0 W/m2 CLR
16:54 0.5 °C -8.1 °C 34405.1 hPa ENE 11.9 km/h 11.9 km/h 40 % 0 mm 624.0 W/m2 CLR
16:59 0.5 °C -8.2 °C 34395 hPa East 15 km/h 15 km/h 39 % 0 mm 636.0 W/m2 CLR
17:00 0.5 °C -8.2 °C 34395 hPa ENE 15 km/h 15 km/h 39 % 0 mm 636.0 W/m2 CLR
17:05 0.4 °C -8.3 °C 34395 hPa East 17.9 km/h 17.9 km/h 39 % 0 mm 380.0 W/m2 CLR
17:10 0.5 °C -8.3 °C 34395 hPa ENE 6 km/h   39 % 0 mm 459.0 W/m2 CLR
17:15 0.6 °C -8.4 °C 34395 hPa Calm     38 % 0 mm 427.0 W/m2 CLR
17:20 0.6 °C -8.4 °C 34395 hPa NE 20.9 km/h 20.9 km/h 38 % 0 mm 371.0 W/m2 CLR
17:25 0.5 °C -8.5 °C 34395 hPa ENE 2.6 km/h 3.1 km/h 38 % 0 mm 443.0 W/m2 CLR
17:30 0.5 °C -8.5 °C 34395 hPa ENE 11.9 km/h 11.9 km/h 38 % 0 mm 369.0 W/m2 CLR
17:35 0.4 °C -8.6 °C 34384.8 hPa East 3.1 km/h   38 % 0 mm 403.0 W/m2 CLR
17:40 0.6 °C -8.4 °C 34384.8 hPa Calm     38 % 0 mm 626.0 W/m2 CLR
17:45 0.7 °C -8.8 °C 34384.8 hPa NW 11.9 km/h   36 % 0 mm 596.0 W/m2 CLR
17:50 0.9 °C -8.6 °C 34384.8 hPa NNE 12.9 km/h 12.9 km/h 36 % 0 mm 510.0 W/m2 CLR
17:55 1 °C -9.1 °C 34384.8 hPa Calm     34 % 0 mm 501.0 W/m2 CLR
18:00 1 °C -9.3 °C 34384.8 hPa Calm     33 % 0 mm 476.0 W/m2 CLR
18:05 1.1 °C -8.9 °C 34384.8 hPa NE 9 km/h 9 km/h 34 % 0 mm 448.0 W/m2 CLR
18:06 1.1 °C -8.9 °C 34384.8 hPa NNE 9 km/h 9 km/h 34 % 0 mm 446.0 W/m2 CLR
18:11 1.2 °C -8.9 °C 34384.8 hPa Calm     34 % 0 mm 424.0 W/m2 CLR
18:16 1.2 °C -9.4 °C 34395 hPa Calm     32 % 0 mm 403.0 W/m2 CLR
18:21 1.1 °C -8.9 °C 34395 hPa Calm     34 % 0 mm 387.0 W/m2 CLR
18:26 1.2 °C -8.9 °C 34395 hPa NNW 12.9 km/h 12.9 km/h 34 % 0 mm 371.0 W/m2 CLR
18:31 1.3 °C -9.1 °C 34384.8 hPa NNE 17.9 km/h 17.9 km/h 33 % 0 mm 357.0 W/m2 CLR
18:36 1.2 °C -9.1 °C 34384.8 hPa Calm     33 % 0 mm 339.0 W/m2 CLR
18:41 1.3 °C -9.3 °C 34384.8 hPa Calm     32 % 0 mm 322.0 W/m2 CLR
18:46 1.3 °C -9.3 °C 34395 hPa NNE 15 km/h 15 km/h 32 % 0 mm 308.0 W/m2 CLR
18:51 1.2 °C -9.1 °C 34395 hPa NNE 18.2 km/h 18.2 km/h 33 % 0 mm 292.0 W/m2 CLR
18:56 1.1 °C -9.2 °C 34395 hPa North 20.9 km/h 20.9 km/h 33 % 0 mm 276.0 W/m2 CLR
19:01 0.9 °C -9.1 °C 34395 hPa Calm     34 % 0 mm 258.0 W/m2 CLR
19:06 0.9 °C -9.1 °C 34395 hPa NNW 17.9 km/h 17.9 km/h 34 % 0 mm 244.0 W/m2 CLR
19:11 0.9 °C -9.3 °C 34384.8 hPa North 11.9 km/h 11.9 km/h 33 % 0 mm 230.0 W/m2 CLR
19:16 0.9 °C -9.4 °C 34384.8 hPa North 9 km/h 9 km/h 33 % 0 mm 213.0 W/m2 CLR
19:21 0.9 °C -9.4 °C 34384.8 hPa Calm     33 % 0 mm 197.0 W/m2 CLR
19:26 0.8 °C -9.4 °C 34384.8 hPa Calm     33 % 0 mm 174.0 W/m2 CLR
19:31 0.8 °C -9.7 °C 34384.8 hPa Calm     32 % 0 mm 158.0 W/m2 CLR
19:36 0.8 °C -9.7 °C 34384.8 hPa Calm     32 % 0 mm 148.0 W/m2 CLR
19:41 0.9 °C -9.6 °C 34384.8 hPa Calm     32 % 0 mm 134.0 W/m2 CLR
19:46 0.8 °C -9.9 °C 34395 hPa Calm     31 % 0 mm 120.0 W/m2 CLR
19:51 0.8 °C -10 °C 34395 hPa Calm     31 % 0 mm 107.0 W/m2 CLR
19:56 0.8 °C -9.9 °C 34395 hPa Calm     31 % 0 mm 95.0 W/m2 CLR
20:01 0.9 °C -9.9 °C 34395 hPa Calm     31 % 0 mm 83.0 W/m2 FEW
20:06 0.9 °C -9.9 °C 34395 hPa Calm     31 % 0 mm 70.0 W/m2 FEW
20:11 0.8 °C -10.3 °C 34395 hPa Calm     30 % 0 mm 58.0 W/m2 SCT
20:16 0.7 °C -10.1 °C 34395 hPa Calm   0.3 km/h 31 % 0 mm 49.0 W/m2 SCT
20:21 0.5 °C -10.2 °C 34395 hPa Calm     31 % 0 mm 42.0 W/m2 BKN
20:26 0.4 °C -10.3 °C 34395 hPa Calm     31 % 0 mm 32.0 W/m2 BKN
20:31 0.4 °C -10.1 °C 34405.1 hPa Calm     32 % 0 mm 26.0 W/m2 BKN
20:36 0.2 °C -10.2 °C 34405.1 hPa Calm     32 % 0 mm 21.0 W/m2 BKN
20:37 0.2 °C -10.2 °C 34405.1 hPa Calm     32 % 0 mm 19.0 W/m2 BKN
20:42 -0.1 °C -10.2 °C 34405.1 hPa Calm     33 % 0 mm 14.0 W/m2 BKN
20:47 -0.2 °C -10.1 °C 34405.1 hPa Calm     34 % 0 mm 11.0 W/m2 BKN
20:52 -0.4 °C -10.2 °C 34405.1 hPa Calm     34 % 0 mm 7.0 W/m2 BKN
20:57 -0.6 °C -10.4 °C 34405.1 hPa Calm     34 % 0 mm 0.0 W/m2 OVC
21:02 -0.7 °C -10.2 °C 34405.1 hPa NNW 7.7 km/h 7.7 km/h 35 % 0 mm 0.0 W/m2 CLR
21:07 -0.8 °C -10.4 °C 34405.1 hPa NW 9 km/h 9 km/h 35 % 0 mm 0.0 W/m2 CLR
21:12 -1 °C -10.3 °C 34418.7 hPa NW 9 km/h   36 % 0 mm 0.0 W/m2 CLR
21:17 -1.2 °C -10.2 °C 34418.7 hPa Calm     37 % 0 mm 0.0 W/m2 CLR
21:22 -1.2 °C -10.3 °C 34418.7 hPa Calm     37 % 0 mm 0.0 W/m2 CLR
21:27 -1.3 °C -10.3 °C 34418.7 hPa Calm     37 % 0 mm 0.0 W/m2 CLR
21:32 -1.3 °C -9.9 °C 34418.7 hPa Calm     39 % 0 mm 0.0 W/m2 CLR
21:38 -1.4 °C -8.7 °C 34418.7 hPa Calm     45 % 0 mm 0.0 W/m2 CLR
21:43 -1.5 °C -8.6 °C 34418.7 hPa Calm     46 % 0 mm 0.0 W/m2 CLR
21:48 -1.6 °C -8.5 °C 34428.8 hPa Calm     47 % 0 mm 0.0 W/m2 CLR
21:53 -1.8 °C -9.7 °C 34428.8 hPa Calm     42 % 0 mm 0.0 W/m2 CLR
21:58 -1.8 °C -9.5 °C 34428.8 hPa Calm     43 % 0 mm 0.0 W/m2 CLR
22:03 -1.9 °C -9.2 °C 34428.8 hPa Calm     45 % 0 mm 0.0 W/m2 CLR
22:08 -2.1 °C -9 °C 34442.4 hPa Calm     47 % 0 mm 0.0 W/m2 CLR
22:13 -2.2 °C -8.6 °C 34428.8 hPa Calm     50 % 0 mm 0.0 W/m2 CLR
22:18 -2.3 °C -8.7 °C 34442.4 hPa Calm     50 % 0 mm 0.0 W/m2 CLR
22:23 -2.4 °C -8.7 °C 34442.4 hPa Calm     50 % 0 mm 0.0 W/m2 CLR
22:28 -2.4 °C -8.9 °C 34442.4 hPa Calm     49 % 0 mm 0.0 W/m2 CLR
22:33 -2.6 °C -10.1 °C 34442.4 hPa Calm     44 % 0 mm 0.0 W/m2 CLR
22:36 -2.7 °C -10.1 °C 34442.4 hPa Calm     44 % 0 mm 0.0 W/m2 CLR
22:41 -3 °C -10.4 °C 34442.4 hPa Calm     44 % 0 mm 0.0 W/m2 CLR
22:46 -3.2 °C -10.2 °C 34452.6 hPa Calm     46 % 0 mm 0.0 W/m2 CLR
22:51 -3.4 °C -10.3 °C 34452.6 hPa Calm     46 % 0 mm 0.0 W/m2 CLR
22:56 -3.4 °C -10.4 °C 34452.6 hPa Calm     46 % 0 mm 0.0 W/m2 CLR
23:01 -3.6 °C -10.2 °C 34452.6 hPa Calm     48 % 0 mm 0.0 W/m2 CLR
23:06 -3.7 °C -10.4 °C 34452.6 hPa Calm     47 % 0 mm 0.0 W/m2 CLR
23:11 -3.7 °C -10.4 °C 34452.6 hPa Calm     47 % 0 mm 0.0 W/m2 CLR
23:16 -3.7 °C -10.4 °C 34452.6 hPa Calm     47 % 0 mm 0.0 W/m2 CLR
23:21 -3.7 °C -10.3 °C 34452.6 hPa Calm     48 % 0 mm 0.0 W/m2 CLR
23:26 -3.7 °C -10.2 °C 34452.6 hPa WSW 3.1 km/h 3.1 km/h 48 % 0 mm 0.0 W/m2 CLR
23:31 -3.7 °C -10.2 °C 34462.7 hPa Calm     48 % 0 mm 0.0 W/m2 CLR
23:36 -3.7 °C -9.9 °C 34462.7 hPa WNW 10.3 km/h 10.3 km/h 50 % 0 mm 0.0 W/m2 CLR
23:41 -3.5 °C -10.1 °C 34462.7 hPa WNW 9 km/h 9 km/h 48 % 0 mm 0.0 W/m2 CLR
23:46 -3.1 °C -9.7 °C 34462.7 hPa NNW 32.8 km/h 32.8 km/h 48 % 0 mm 0.0 W/m2 CLR
23:51 -2.5 °C -9.7 °C 34462.7 hPa NNW 32.8 km/h 32.8 km/h 45 % 0 mm 0.0 W/m2 CLR
23:56 -2.3 °C -9.8 °C 34462.7 hPa North 20.8 km/h 20.8 km/h 44 % 0 mm 0.0 W/m2 CLR
Lo Temps de Massalio
Compliments of Weather Underground - 1.25 mb